Location: *
(60.1759°S, 155.0663°W)
Time: 00:32:54
(UTC+00:00)

ERBS - Pass Details

Date: 17 September 2019
Orbit: 417 x 426 km, 57.0° (Epoch: 21 October)

Event Time Altitude Azimuth Distance (km) Brightness Sun altitude
Exits shadow 14:28:12 16° 349° (N) 1,236 4.3 -14.9°
Maximum altitude 14:29:59 23° 30° (NNE) 969 4.2 -14.7°
Drops below altitude 10° 14:32:46 10° 84° (E) 1,536 6.1 -14.3°
Sets 14:35:08 0° 99° (E) 2,406 7.8 -14.1°
